Location: Qazi Observatory
(41.6337°N, 88.1517°W)
Time: 04:25:42
(UTC-05:00)

Amateur Radio Satellites - All Passes

Search period start: 29 April 2017 03:55
Search period end: 30 April 2017 03:55
Location: Qazi Observatory, 41.6337°N, 88.1517°W

Satellite Date Start Highest point End Downlink Frequencies (MHz)
Time Altitude Azimuth
KKS-1 29 Apr 04:09:01 04:13:12 40° 70° (ENE) 04:17:24 437.445
PCSat 29 Apr 04:13:20 04:16:14 14° 321° (NW) 04:19:09 145.827
MOZHAYETS 4 29 Apr 04:16:24 04:20:26 31° 264° (W) 04:24:31
STARS 29 Apr 04:33:33 04:37:28 32° 69° (ENE) 04:41:23 437.465
SO-50 29 Apr 04:46:30 04:48:20 12° 108° (ESE) 04:50:09 436.795
AO-7 29 Apr 04:48:39 04:57:01 87° 108° (ESE) 05:05:22 .
ITAMSAT 1 29 Apr 05:03:11 05:08:03 42° 291° (WNW) 05:12:54 435.822/435.867
CUBESAT XI-V 29 Apr 05:13:58 05:18:26 46° 261° (W) 05:22:57 437.345
YUBILEINY 29 Apr 05:23:20 05:31:45 53° 284° (WNW) 05:40:15 435.215
KKS-1 29 Apr 05:46:41 05:49:54 19° 267° (W) 05:53:07 437.445
XW-2F 29 Apr 05:56:33 05:57:20 10° 90° (E) 05:58:08 145.980 - 146.000
STARS 29 Apr 06:10:16 06:13:49 24° 265° (W) 06:17:22 437.465
M-CUBED/EXP-1 PRIME 29 Apr 06:17:37 06:21:12 22° 61° (ENE) 06:24:48 437.505
SO-50 29 Apr 06:23:34 06:28:11 75° 304° (NW) 06:32:46 436.795
CUTE-I 29 Apr 06:30:33 06:35:09 29° 96° (E) 06:39:43 437.470
RS-15 29 Apr 06:38:32 06:49:58 53° 111° (ESE) 07:01:43 29.354- 29.394
AO-7 29 Apr 06:42:43 06:48:48 23° 308° (NW) 06:54:54 .
ISS 29 Apr 06:45:16 06:47:24 16° 132° (SE) 06:49:33 437.550
XW-2D 29 Apr 06:45:36 06:49:18 46° 99° (E) 06:52:59 145.860 - 145.880
XW-2B 29 Apr 06:52:34 06:56:19 55° 99° (E) 07:00:05 145.730 - 145.750
HO-68 29 Apr 06:53:50 06:57:34 15° 88° (E) 07:01:17 435.675
STRAND 1 29 Apr 06:54:59 06:59:48 44° 70° (ENE) 07:04:38 437.568
KAITUO 1B 29 Apr 06:55:30 06:59:11 47° 99° (E) 07:02:50 145.475/437.950
DOVE 4 29 Apr 06:56:44 07:01:20 84° 281° (W) 07:05:37 437.250
XW-2C 29 Apr 07:04:34 07:08:25 80° 104° (ESE) 07:12:14 145.795 - 145.815
LilacSat-2 29 Apr 07:06:46 07:10:38 89° 104° (ESE) 07:14:30 437.200
CUTE 1.7 + AOD 2 29 Apr 07:14:21 07:16:23 13° 90° (E) 07:18:27 437.475
XW-2F 29 Apr 07:28:03 07:31:47 53° 286° (WNW) 07:35:30 145.980 - 146.000
SEEDS 29 Apr 07:29:14 07:30:58 12° 90° (E) 07:32:42 437.485
NUDT-PHONESAT 29 Apr 07:30:58 07:34:38 59° 285° (WNW) 07:38:19 437.300
Tancredo 1 29 Apr 07:37:21 07:40:26 73° 142° (SE) 07:43:31 437.200
M-CUBED/EXP-1 PRIME 29 Apr 07:50:54 07:55:19 44° 257° (WSW) 07:59:48 437.505
SO-50 29 Apr 08:07:15 08:09:24 13° 324° (NW) 08:11:33 436.795
CUTE-I 29 Apr 08:10:24 08:15:13 36° 292° (WNW) 08:20:01 437.470
ISS 29 Apr 08:20:22 08:23:35 58° 327° (NNW) 08:26:49 437.550
XW-2D 29 Apr 08:21:15 08:23:05 13° 295° (WNW) 08:24:55 145.860 - 145.880
AAUSAT CUBESAT 2 29 Apr 08:27:06 08:30:37 26° 95° (E) 08:34:07 437.432
UWE-3 29 Apr 08:28:41 08:32:08 24° 95° (E) 08:35:37 435.000/436.395/437.385
XW-2B 29 Apr 08:28:46 08:30:03 11° 296° (WNW) 08:31:20 145.730 - 145.750
XW-2A 29 Apr 08:29:35 08:32:56 74° 285° (WNW) 08:36:18 145.665 - 145.685
KAITUO 1B 29 Apr 08:31:03 08:32:46 13° 295° (WNW) 08:34:30 145.475/437.950
STRAND 1 29 Apr 08:35:16 08:39:09 22° 266° (W) 08:43:04 437.568
HO-68 29 Apr 08:38:59 08:46:14 85° 105° (ESE) 08:53:27 435.675
CUBEBUG 2 29 Apr 08:47:25 08:51:34 65° 100° (E) 08:55:48 437.445
CUTE 1.7 + AOD 2 29 Apr 08:48:20 08:52:33 54° 286° (WNW) 08:56:43 437.475
RS-15 29 Apr 08:50:45 09:02:33 54° 315° (NW) 09:14:39 29.354- 29.394
TIGRISAT 29 Apr 08:51:35 08:53:25 12° 63° (ENE) 08:55:13 435.000
SEEDS 29 Apr 09:02:49 09:07:00 57° 286° (WNW) 09:11:10 437.485
O/OREOS (USA 219) 29 Apr 09:06:49 09:10:07 20° 101° (E) 09:13:26 437.305
FO-29 29 Apr 09:08:35 09:13:10 23° 65° (ENE) 09:17:26 435.910
UNISAT 6 29 Apr 09:11:58 09:15:18 22° 67° (ENE) 09:18:38 437.425
Tancredo 1 29 Apr 09:14:09 09:16:36 21° 341° (NNW) 09:19:01 437.200
ZACube-1 29 Apr 09:17:05 09:21:13 47° 100° (E) 09:25:23 437.345
PRISM 29 Apr 09:21:00 09:24:57 43° 72° (ENE) 09:28:55 437.425
AO-73 29 Apr 09:22:12 09:26:20 49° 99° (E) 09:30:32 145.935
PCSat 29 Apr 09:31:55 09:35:27 17° 41° (NE) 09:38:58 145.827
Oscar 11 29 Apr 09:34:13 09:38:31 55° 100° (E) 09:42:47 .
ISS 29 Apr 09:58:20 10:00:37 17° 347° (NNW) 10:02:53 437.550
AAUSAT CUBESAT 2 29 Apr 10:02:30 10:06:00 26° 291° (WNW) 10:09:30 437.432
UWE-3 29 Apr 10:04:57 10:08:34 29° 290° (WNW) 10:12:14 435.000/436.395/437.385
OBJECT BX 29 Apr 10:17:25 10:20:47 33° 98° (E) 10:24:07 145.990 - 145.960
DELFI C3 29 Apr 10:19:35 10:23:30 50° 100° (E) 10:27:22 145.870
AIST 2D 29 Apr 10:24:46 10:26:33 14° 67° (ENE) 10:28:21 435.315
TIGRISAT 29 Apr 10:25:15 10:29:35 64° 259° (W) 10:33:51 435.000
CUBEBUG 2 29 Apr 10:26:15 10:27:41 12° 297° (WNW) 10:29:07 437.445
POLYITAN 1 29 Apr 10:27:35 10:28:21 10° 61° (ENE) 10:29:09 437.675
HO-68 29 Apr 10:28:10 10:33:04 20° 305° (NW) 10:37:59 435.675
QB50P2 29 Apr 10:32:59 10:35:02 13° 63° (ENE) 10:37:04 145.880/145.840
O/OREOS (USA 219) 29 Apr 10:44:51 10:49:12 41° 298° (WNW) 10:53:36 437.305
UNISAT 6 29 Apr 10:47:53 10:51:50 33° 263° (W) 10:55:45 437.425
NANOSAT C BR1 29 Apr 10:51:02 10:53:49 17° 65° (ENE) 10:56:36 145.865
Tancredo 1 29 Apr 10:51:47 10:53:22 13° 1° (N) 10:54:55 437.200
FO-29 29 Apr 10:51:57 10:58:00 52° 259° (W) 11:03:27 435.910
ZACube-1 29 Apr 10:54:33 10:57:08 16° 295° (WNW) 10:59:43 437.345
PRISM 29 Apr 10:57:54 11:00:25 16° 267° (W) 11:02:58 437.425
AO-73 29 Apr 10:59:41 11:02:11 15° 295° (WNW) 11:04:42 145.935
RS-15 29 Apr 11:09:11 11:18:53 26° 346° (NNW) 11:28:36 29.354- 29.394
Oscar 11 29 Apr 11:11:48 11:14:11 15° 296° (WNW) 11:16:33 .
LO-87 29 Apr 11:11:56 11:14:34 19° 94° (E) 11:17:12 145.935 - 145.965
PCSat 29 Apr 11:14:08 11:19:37 89° 232° (SW) 11:25:02 145.827
DUCHIFAT 1 29 Apr 11:18:09 11:21:49 30° 69° (ENE) 11:25:28 145.980
EO-79 29 Apr 11:19:29 11:23:22 38° 71° (ENE) 11:27:17 145.935-145.965
ESTCUBE 1 29 Apr 11:25:43 11:28:53 18° 93° (E) 11:32:03 437.505/2401.250
ISS 29 Apr 11:36:03 11:38:04 15° 8° (N) 11:40:05 437.550
OBJECT BX 29 Apr 11:51:55 11:54:12 16° 293° (WNW) 11:56:29 145.990 - 145.960
DELFI C3 29 Apr 11:55:51 11:57:50 13° 296° (WNW) 11:59:48 145.870
AIST 2D 29 Apr 11:56:16 11:59:27 34° 262° (W) 12:02:40 435.315
POLYITAN 1 29 Apr 11:59:19 12:03:31 75° 258° (WSW) 12:07:44 437.675
AO-85 29 Apr 12:03:33 12:07:48 63° 120° (ESE) 12:11:49 145.980
QB50P2 29 Apr 12:06:11 12:10:20 57° 260° (W) 12:14:30 145.880/145.840
SPROUT 29 Apr 12:06:43 12:08:23 12° 90° (E) 12:10:03 437.525
BUGSAT 1 29 Apr 12:07:40 12:11:23 34° 70° (ENE) 12:15:05 437.445
BEESAT 3 29 Apr 12:24:59 12:27:47 19° 111° (ESE) 12:30:37 437.485
NANOSAT C BR1 29 Apr 12:25:14 12:29:13 41° 261° (W) 12:33:12 145.865
Tancredo 1 29 Apr 12:27:33 12:30:06 23° 21° (NNE) 12:32:38 437.200
LO-87 29 Apr 12:45:03 12:48:00 24° 290° (WNW) 12:50:53 145.935 - 145.965
DUCHIFAT 1 29 Apr 12:54:10 12:57:29 22° 265° (W) 13:00:48 145.980
EO-79 29 Apr 12:56:21 12:59:16 18° 267° (W) 13:02:11 145.935-145.965
50 SAT 29 Apr 12:58:52 13:01:47 25° 96° (E) 13:04:41 437.505
PCSat 29 Apr 13:00:24 13:02:09 12° 258° (WSW) 13:03:53 145.827
VELOX 1 29 Apr 13:01:11 13:05:31 52° 101° (E) 13:09:48 145.980
ESTCUBE 1 29 Apr 13:01:34 13:05:52 43° 289° (WNW) 13:10:09 437.505/2401.250
UKube-1 29 Apr 13:05:07 13:07:29 14° 92° (E) 13:09:51 .
Oscar 19 29 Apr 13:09:16 13:14:18 56° 72° (ENE) 13:19:22 437.125/150
ISS 29 Apr 13:12:11 13:15:15 37° 27° (NNE) 13:18:18 437.550
SO-50 29 Apr 13:15:25 13:18:09 16° 39° (NE) 13:20:52 436.795
RS-15 29 Apr 13:26:46 13:37:01 29° 22° (NNE) 13:46:59 29.354- 29.394
Gurwin Techsat 1B 29 Apr 13:35:23 13:40:34 58° 72° (ENE) 13:45:48 435.225
YUBILEINY 29 Apr 13:37:59 13:43:11 17° 59° (ENE) 13:48:23 435.215
SPROUT 29 Apr 13:40:29 13:44:39 57° 286° (WNW) 13:48:48 437.525
DX 1 29 Apr 13:42:54 13:47:12 55° 101° (E) 13:51:27 434.975-435.025
BUGSAT 1 29 Apr 13:43:49 13:46:48 19° 266° (W) 13:49:48 437.445
AO-85 29 Apr 13:45:57 13:48:31 16° 317° (NW) 13:51:02 145.980
AO-7 29 Apr 13:57:11 14:03:51 28° 55° (NE) 14:10:31 .
BEESAT 3 29 Apr 14:01:23 14:05:05 38° 309° (NW) 14:08:52 437.485
Tancredo 1 29 Apr 14:03:08 14:06:11 58° 219° (SW) 14:09:14 437.200
BEESAT 2 29 Apr 14:06:59 14:10:56 87° 303° (WNW) 14:14:59 435.950
50 SAT 29 Apr 14:32:04 14:34:33 19° 292° (WNW) 14:37:01 437.505
VELOX 1 29 Apr 14:38:52 14:41:32 16° 297° (WNW) 14:44:10 145.980
UKube-1 29 Apr 14:39:36 14:43:47 50° 288° (WNW) 14:47:56 .
ITAMSAT 1 29 Apr 14:42:14 14:46:59 38° 68° (ENE) 14:51:44 435.822/435.867
ISS 29 Apr 14:48:49 14:51:40 28° 224° (SW) 14:54:30 437.550
Oscar 19 29 Apr 14:50:29 14:53:57 18° 268° (W) 14:57:26 437.125/150
SO-50 29 Apr 14:54:40 14:59:11 82° 237° (WSW) 15:03:41 436.795
BEESAT 29 Apr 15:08:16 15:12:16 26° 95° (E) 15:16:15 436.000
Gurwin Techsat 1B 29 Apr 15:17:19 15:20:53 18° 268° (W) 15:24:27 435.225
DX 1 29 Apr 15:20:30 15:22:56 15° 297° (WNW) 15:25:20 434.975-435.025
YUBILEINY 29 Apr 15:32:43 15:41:33 79° 82° (E) 15:50:22 435.215
RS-15 29 Apr 15:40:10 15:52:27 68° 51° (NE) 16:04:07 29.354- 29.394
AO-7 29 Apr 15:47:39 15:55:55 72° 254° (WSW) 16:04:13 .
BEESAT 2 29 Apr 15:47:45 15:49:20 12° 322° (NW) 15:50:56 435.950
ITUPSAT 1 29 Apr 15:50:31 15:55:19 69° 103° (ESE) 16:00:04 437.325
MOZHAYETS 4 29 Apr 16:10:20 16:14:54 57° 100° (E) 16:19:27
ITAMSAT 1 29 Apr 16:22:10 16:26:31 27° 265° (W) 16:30:52 435.822/435.867
DOVE 4 29 Apr 16:26:46 16:29:12 13° 61° (ENE) 16:31:36 437.250
BEESAT 29 Apr 16:45:47 16:50:04 33° 291° (WNW) 16:54:19 436.000
CUBESAT XI-V 29 Apr 17:10:03 17:14:33 42° 98° (E) 17:19:00 437.345
HO-68 29 Apr 17:24:55 17:27:57 13° 50° (NE) 17:30:59 435.675
XW-2D 29 Apr 17:27:25 17:30:24 23° 69° (ENE) 17:33:23 145.860 - 145.880
ITUPSAT 1 29 Apr 17:30:03 17:32:33 14° 299° (WNW) 17:35:03 437.325
NO-84 29 Apr 17:30:57 17:32:49 13° 126° (SE) 17:34:37 435.350 FM
YUBILEINY 29 Apr 17:31:11 17:37:16 22° 281° (W) 17:43:24 435.215
XW-2B 29 Apr 17:34:15 17:37:24 26° 70° (ENE) 17:40:34 145.730 - 145.750
KKS-1 29 Apr 17:35:43 17:40:10 79° 104° (ESE) 17:44:35 437.445
KAITUO 1B 29 Apr 17:36:10 17:39:03 22° 69° (ENE) 17:41:58 145.475/437.950
XW-2C 29 Apr 17:45:58 17:49:25 37° 72° (ENE) 17:52:54 145.795 - 145.815
AO-7 29 Apr 17:46:50 17:50:03 13° 273° (W) 17:53:16 .
LilacSat-2 29 Apr 17:48:39 17:52:12 42° 73° (ENE) 17:55:47 437.200
MOZHAYETS 4 29 Apr 17:48:52 17:51:35 16° 297° (WNW) 17:54:18
CUTE-I 29 Apr 17:52:20 17:57:27 49° 70° (ENE) 18:02:35 437.470
RS-15 29 Apr 17:53:33 18:04:09 38° 255° (WSW) 18:14:21 29.354- 29.394
STARS 29 Apr 17:58:12 18:02:31 59° 101° (ESE) 18:06:48 437.465
DOVE 4 29 Apr 18:00:52 18:06:11 86° 257° (WSW) 18:11:23 437.250
XW-2F 29 Apr 18:08:40 18:12:22 70° 75° (ENE) 18:16:05 145.980 - 146.000
CUTE 1.7 + AOD 2 29 Apr 18:09:08 18:09:36 10° 61° (ENE) 18:10:06 437.475
NUDT-PHONESAT 29 Apr 18:10:04 18:13:40 58° 74° (ENE) 18:17:17 437.300
CUBESAT XI-V 29 Apr 18:48:06 18:51:37 21° 295° (WNW) 18:55:05 437.345
XW-2A 29 Apr 19:01:03 19:04:05 33° 72° (ENE) 19:07:07 145.665 - 145.685
XW-2D 29 Apr 19:01:28 19:04:30 23° 265° (W) 19:07:33 145.860 - 145.880
NO-84 29 Apr 19:06:15 19:10:03 74° 320° (NW) 19:13:30 435.350 FM
STRAND 1 29 Apr 19:06:35 19:09:23 15° 90° (E) 19:12:09 437.568
HO-68 29 Apr 19:07:16 19:14:18 65° 69° (ENE) 19:21:23 435.675
XW-2B 29 Apr 19:08:46 19:11:34 20° 266° (W) 19:14:24 145.730 - 145.750
KAITUO 1B 29 Apr 19:09:57 19:12:57 23° 265° (W) 19:15:59 145.475/437.950
KKS-1 29 Apr 19:14:50 19:16:04 11° 300° (WNW) 19:17:17 437.445
O/OREOS (USA 219) 29 Apr 19:15:20 19:19:40 39° 62° (ENE) 19:23:55 437.305
AAUSAT CUBESAT 2 29 Apr 19:17:51 19:20:42 18° 66° (ENE) 19:23:34 437.432
XW-2C 29 Apr 19:21:41 19:23:46 14° 268° (W) 19:25:52 145.795 - 145.815
LilacSat-2 29 Apr 19:24:57 19:26:42 13° 269° (W) 19:28:27 437.200
UWE-3 29 Apr 19:26:18 19:29:23 20° 67° (ENE) 19:32:27 435.000/436.395/437.385
M-CUBED/EXP-1 PRIME 29 Apr 19:32:03 19:33:19 11° 94° (E) 19:34:34 437.505
CUTE-I 29 Apr 19:33:43 19:37:45 22° 267° (W) 19:41:47 437.470
STARS 29 Apr 19:36:08 19:38:22 14° 298° (WNW) 19:40:35 437.465
CUTE 1.7 + AOD 2 29 Apr 19:40:34 19:44:47 78° 259° (W) 19:49:03 437.475
DOVE 4 29 Apr 19:43:54 19:44:28 10° 273° (W) 19:45:02 437.250
CUBEBUG 2 29 Apr 19:45:25 19:49:37 54° 74° (ENE) 19:53:45 437.445
SEEDS 29 Apr 19:54:02 19:58:13 85° 257° (WSW) 20:02:28 437.485
ZACube-1 29 Apr 20:13:06 20:16:55 36° 71° (ENE) 20:20:44 437.345
AO-73 29 Apr 20:17:53 20:21:43 37° 71° (ENE) 20:25:32 145.935
Oscar 11 29 Apr 20:28:57 20:33:00 42° 72° (ENE) 20:37:04 .
AO-85 29 Apr 20:34:15 20:38:09 53° 54° (NE) 20:42:12 145.980
XW-2A 29 Apr 20:35:28 20:36:57 12° 268° (W) 20:38:27 145.665 - 145.685
BEESAT 3 29 Apr 20:41:09 20:43:38 16° 42° (NE) 20:46:06 437.485
STRAND 1 29 Apr 20:43:56 20:49:00 66° 287° (WNW) 20:54:04 437.568
NO-84 29 Apr 20:45:54 20:48:01 15° 337° (NNW) 20:50:02 435.350 FM
AAUSAT CUBESAT 2 29 Apr 20:52:00 20:55:52 38° 262° (W) 20:59:47 437.432
O/OREOS (USA 219) 29 Apr 20:55:23 20:58:45 21° 259° (W) 21:02:06 437.305
OBJECT BX 29 Apr 20:56:20 20:58:35 16° 67° (ENE) 21:00:51 145.990 - 145.960
HO-68 29 Apr 20:56:57 21:02:30 24° 267° (W) 21:08:06 435.675
UWE-3 29 Apr 21:01:47 21:05:38 34° 263° (W) 21:09:28 435.000/436.395/437.385
M-CUBED/EXP-1 PRIME 29 Apr 21:04:11 21:08:13 55° 292° (WNW) 21:11:54 437.505
DELFI C3 29 Apr 21:05:09 21:08:37 29° 70° (ENE) 21:12:06 145.870
CUBEBUG 2 29 Apr 21:24:35 21:26:32 13° 269° (W) 21:28:30 437.445
ZACube-1 29 Apr 21:50:28 21:53:20 18° 267° (W) 21:56:12 437.345
AO-73 29 Apr 21:55:17 21:58:05 17° 267° (W) 22:00:53 145.935
FO-29 29 Apr 22:01:15 22:04:35 17° 92° (E) 22:08:03 435.910
Oscar 11 29 Apr 22:06:32 22:09:19 17° 268° (W) 22:12:08 .
AO-85 29 Apr 22:16:01 22:18:08 14° 249° (WSW) 22:20:18 145.980
TIGRISAT 29 Apr 22:16:42 22:20:13 24° 95° (E) 22:23:45 435.000
BEESAT 3 29 Apr 22:17:38 22:21:37 64° 241° (WSW) 22:25:33 437.485
BEESAT 2 29 Apr 22:24:26 22:28:27 57° 54° (NE) 22:32:25 435.950
ESTCUBE 1 29 Apr 22:25:41 22:28:45 18° 64° (ENE) 22:31:49 437.505/2401.250
OBJECT BX 29 Apr 22:28:42 22:32:00 32° 263° (W) 22:35:19 145.990 - 145.960
PRISM 29 Apr 22:36:58 22:41:06 70° 101° (E) 22:45:13 437.425
UNISAT 6 29 Apr 22:38:32 22:42:41 45° 99° (E) 22:46:53 437.425
DELFI C3 29 Apr 22:40:20 22:43:24 21° 266° (W) 22:46:28 145.870
SPROUT 29 Apr 23:01:36 23:02:24 10° 61° (ENE) 23:03:13 437.525
LO-87 29 Apr 23:20:18 23:23:54 61° 259° (W) 23:27:30 145.935 - 145.965
AIST 2D 29 Apr 23:21:46 23:23:57 16° 93° (E) 23:26:08 435.315
50 SAT 29 Apr 23:33:41 23:34:38 11° 64° (ENE) 23:35:35 437.505
POLYITAN 1 29 Apr 23:44:51 23:47:37 17° 93° (E) 23:50:23 437.675
FO-29 29 Apr 23:44:53 23:50:03 60° 287° (WNW) 23:55:36 435.910
QB50P2 29 Apr 23:51:16 23:54:33 22° 94° (E) 23:57:48 145.880/145.840
TIGRISAT 29 Apr 23:53:10 23:56:54 29° 290° (WNW) 00:00:39 435.000
VELOX 1 29 Apr 23:58:14 00:02:30 47° 72° (ENE) 00:06:47 145.980
UKube-1 30 Apr 00:00:15 00:02:27 14° 62° (ENE) 00:04:39 .
ESTCUBE 1 30 Apr 00:00:52 00:05:11 46° 261° (W) 00:09:33 437.505/2401.250
BEESAT 2 30 Apr 00:03:47 00:05:43 13° 251° (WSW) 00:07:39 435.950
NO-84 30 Apr 00:04:02 00:05:32 13° 20° (NNE) 00:07:01 435.350 FM
NANOSAT C BR1 30 Apr 00:09:15 00:12:53 28° 96° (E) 00:16:32 145.865
PRISM 30 Apr 00:14:39 00:15:48 11° 299° (WNW) 00:16:56 437.425
UNISAT 6 30 Apr 00:16:19 00:19:04 17° 295° (WNW) 00:21:50 437.425
PCSat 30 Apr 00:17:38 00:18:31 10° 101° (E) 00:19:24 145.827
SPROUT 30 Apr 00:33:24 00:37:41 77° 258° (WSW) 00:41:57 437.525
DUCHIFAT 1 30 Apr 00:36:43 00:40:49 52° 100° (E) 00:44:53 145.980
DX 1 30 Apr 00:38:15 00:42:28 48° 72° (ENE) 00:46:42 434.975-435.025
EO-79 30 Apr 00:39:01 00:43:13 70° 102° (ESE) 00:47:24 145.935-145.965
AIST 2D 30 Apr 00:54:06 00:57:13 30° 288° (WNW) 01:00:20 435.315
50 SAT 30 Apr 01:03:45 01:07:07 47° 260° (W) 01:10:31 437.505
POLYITAN 1 30 Apr 01:19:38 01:23:34 40° 289° (WNW) 01:27:30 437.675
Oscar 19 30 Apr 01:21:31 01:25:11 19° 92° (E) 01:28:51 437.125/150
BUGSAT 1 30 Apr 01:23:50 01:27:47 55° 101° (E) 01:31:43 437.445
QB50P2 30 Apr 01:26:38 01:30:22 31° 290° (WNW) 01:34:05 145.880/145.840
UKube-1 30 Apr 01:33:42 01:37:58 59° 259° (WSW) 01:42:16 .
VELOX 1 30 Apr 01:36:22 01:39:11 16° 268° (W) 01:42:01 145.980
NO-84 30 Apr 01:40:35 01:43:32 79° 39° (NE) 01:46:22 435.350 FM
NANOSAT C BR1 30 Apr 01:45:06 01:48:29 24° 292° (WNW) 01:51:50 145.865
Gurwin Techsat 1B 30 Apr 01:52:04 01:56:10 22° 93° (E) 02:00:14 435.225
PCSat 30 Apr 01:55:35 02:01:00 83° 117° (ESE) 02:06:28 145.827
DUCHIFAT 1 30 Apr 02:13:51 02:16:02 14° 296° (WNW) 02:18:13 145.980
BEESAT 30 Apr 02:14:45 02:18:55 31° 68° (ENE) 02:23:05 436.000
DX 1 30 Apr 02:16:18 02:18:54 15° 268° (W) 02:21:31 434.975-435.025
EO-79 30 Apr 02:17:10 02:18:24 11° 298° (WNW) 02:19:37 145.935-145.965
YUBILEINY 30 Apr 02:41:24 02:46:35 18° 77° (ENE) 02:51:46 435.215
ITAMSAT 1 30 Apr 02:56:41 02:58:46 12° 89° (E) 03:00:50 435.822/435.867
ITUPSAT 1 30 Apr 02:57:13 03:01:57 82° 75° (ENE) 03:06:44 437.325
Oscar 19 30 Apr 02:59:45 03:04:48 52° 289° (WNW) 03:09:49 437.125/150
BUGSAT 1 30 Apr 03:00:59 03:02:41 12° 297° (WNW) 03:04:22 437.445
MOZHAYETS 4 30 Apr 03:12:08 03:16:34 55° 73° (ENE) 03:21:02
Gurwin Techsat 1B 30 Apr 03:31:14 03:36:19 47° 290° (WNW) 03:41:23 435.225
PCSat 30 Apr 03:41:23 03:45:05 18° 318° (NW) 03:48:47 145.827
